�������l�o���
Date,Time,MP-1(��Sv/h),MP-2(��Sv/h),MP-3(��Sv/h),MP-4(��Sv/h),MP-5(��Sv/h),MP-6(��Sv/h),MP-7(��Sv/h),MP-8(��Sv/h),����,����(m/s),���J
2024/02/11,00:00,0.504,0.763,0.481,0.952,0.688,0.311,0.554,0.520,��,6.6,��
2024/02/11,00:10,0.505,0.762,0.480,0.956,0.687,0.310,0.555,0.520,���k��,4.3,��
2024/02/11,00:20,0.504,0.763,0.482,0.954,0.687,0.309,0.555,0.520,���k��,3.6,��
2024/02/11,00:30,0.505,0.765,0.482,0.956,0.687,0.309,0.554,0.518,�k��,3.1,��
2024/02/11,00:40,0.504,0.764,0.481,0.956,0.687,0.311,0.555,0.521,���k��,5.7,��
2024/02/11,00:50,0.505,0.763,0.482,0.953,0.687,0.310,0.555,0.520,���k��,6.7,��
2024/02/11,01:00,0.503,0.762,0.480,0.955,0.688,0.310,0.555,0.519,���k��,7.9,��
2024/02/11,01:10,0.505,0.763,0.482,0.955,0.687,0.311,0.555,0.520,���k��,9.9,��
2024/02/11,01:20,0.505,0.763,0.482,0.955,0.686,0.310,0.556,0.520,���k��,9.0,��
2024/02/11,01:30,0.505,0.764,0.481,0.955,0.689,0.311,0.555,0.520,���k��,11.4,��
2024/02/11,01:40,0.503,0.763,0.481,0.955,0.688,0.309,0.555,0.519,���k��,9.7,��
2024/02/11,01:50,0.505,0.763,0.481,0.955,0.687,0.311,0.555,0.519,���k��,11.9,��
2024/02/11,02:00,0.505,0.761,0.479,0.955,0.687,0.310,0.555,0.521,���k��,9.7,��
2024/02/11,02:10,0.505,0.764,0.481,0.954,0.687,0.311,0.553,0.521,���k��,10.2,��
2024/02/11,02:20,0.504,0.764,0.479,0.957,0.687,0.309,0.556,0.520,���k��,11.1,��
2024/02/11,02:30,0.505,0.763,0.478,0.956,0.686,0.309,0.556,0.521,�k��,9.0,��
2024/02/11,02:40,0.503,0.765,0.479,0.956,0.688,0.309,0.554,0.522,�k��,7.1,��
2024/02/11,02:50,0.504,0.764,0.479,0.955,0.688,0.309,0.556,0.522,���k��,6.0,��
2024/02/11,03:00,0.504,0.764,0.479,0.955,0.686,0.311,0.555,0.522,�k��,6.8,��
2024/02/11,03:10,0.505,0.762,0.481,0.958,0.688,0.309,0.556,0.523,�k��,7.8,��
2024/02/11,03:20,0.505,0.762,0.482,0.957,0.689,0.311,0.555,0.522,���k��,7.3,��
2024/02/11,03:30,0.505,0.764,0.481,0.953,0.686,0.311,0.554,0.521,���k��,7.2,��
2024/02/11,03:40,0.503,0.763,0.481,0.956,0.687,0.313,0.556,0.522,���k��,8.3,��
2024/02/11,03:50,0.503,0.763,0.481,0.955,0.686,0.311,0.556,0.521,�k��,8.0,��
2024/02/11,04:00,0.503,0.762,0.482,0.956,0.688,0.310,0.555,0.522,���k��,6.7,��
2024/02/11,04:10,0.503,0.763,0.481,0.956,0.687,0.311,0.556,0.521,���k��,6.8,��
2024/02/11,04:20,0.503,0.762,0.482,0.955,0.688,0.310,0.555,0.522,�k��,6.2,��
2024/02/11,04:30,0.504,0.764,0.482,0.956,0.686,0.311,0.555,0.521,�k��,5.8,��
2024/02/11,04:40,0.503,0.765,0.482,0.957,0.688,0.309,0.556,0.522,�k��,5.8,��
2024/02/11,04:50,0.504,0.763,0.481,0.954,0.688,0.310,0.557,0.521,���k��,4.9,��
2024/02/11,05:00,0.505,0.762,0.480,0.956,0.686,0.310,0.556,0.521,���k��,5.6,��
2024/02/11,05:10,0.504,0.764,0.481,0.956,0.687,0.310,0.556,0.522,�k��,5.2,��
2024/02/11,05:20,0.505,0.762,0.482,0.955,0.687,0.310,0.555,0.520,�k��,6.1,��
2024/02/11,05:30,0.505,0.764,0.481,0.955,0.687,0.311,0.555,0.521,�k��,5.2,��
2024/02/11,05:40,0.504,0.762,0.481,0.955,0.687,0.310,0.554,0.520,�k��,4.4,��
2024/02/11,05:50,0.505,0.764,0.482,0.954,0.687,0.310,0.556,0.521,�k��,3.7,��
2024/02/11,06:00,0.505,0.763,0.480,0.953,0.689,0.310,0.555,0.520,�k��,3.8,��
2024/02/11,06:10,0.504,0.763,0.482,0.955,0.687,0.310,0.554,0.522,�k��,3.4,��
2024/02/11,06:20,0.506,0.763,0.482,0.956,0.686,0.310,0.556,0.521,�k��,3.2,��
2024/02/11,06:30,0.505,0.763,0.481,0.954,0.685,0.307,0.554,0.520,�k��,4.1,��
2024/02/11,06:40,0.504,0.764,0.482,0.955,0.685,0.310,0.555,0.519,�k��,4.6,��
2024/02/11,06:50,0.505,0.762,0.481,0.958,0.686,0.310,0.556,0.520,�k��,5.4,��
2024/02/11,07:00,0.505,0.763,0.481,0.954,0.688,0.310,0.555,0.520,�k��,4.9,��
2024/02/11,07:10,0.505,0.765,0.481,0.955,0.687,0.309,0.555,0.521,�k��,4.6,��
2024/02/11,07:20,0.506,0.763,0.480,0.957,0.687,0.311,0.556,0.520,�k��,4.8,��
2024/02/11,07:30,0.504,0.764,0.481,0.957,0.687,0.309,0.555,0.520,���k��,4.3,��
2024/02/11,07:40,0.504,0.762,0.479,0.956,0.688,0.310,0.555,0.520,���k��,3.1,��
2024/02/11,07:50,0.504,0.765,0.481,0.957,0.686,0.311,0.555,0.520,���k��,5.4,��
2024/02/11,08:00,0.504,0.763,0.480,0.956,0.686,0.311,0.556,0.519,���k��,5.9,��
2024/02/11,08:10,0.505,0.766,0.481,0.956,0.687,0.310,0.555,0.520,���k��,6.3,��
2024/02/11,08:20,0.505,0.763,0.482,0.956,0.687,0.310,0.556,0.521,�k��,5.8,��
2024/02/11,08:30,0.503,0.766,0.481,0.957,0.687,0.309,0.556,0.520,���k��,5.1,��
2024/02/11,08:40,0.504,0.764,0.480,0.956,0.687,0.310,0.554,0.520,���k��,3.7,��
2024/02/11,08:50,0.505,0.766,0.480,0.956,0.687,0.309,0.556,0.521,�k��,5.3,��
2024/02/11,09:00,0.505,0.766,0.482,0.955,0.688,0.310,0.556,0.520,���k��,6.5,��
2024/02/11,09:10,0.505,0.764,0.481,0.957,0.689,0.310,0.555,0.520,���k��,4.2,��
2024/02/11,09:20,0.504,0.765,0.481,0.958,0.689,0.309,0.557,0.521,���k��,5.5,��
2024/02/11,09:30,0.506,0.763,0.482,0.956,0.687,0.310,0.555,0.520,���k��,5.5,��
2024/02/11,09:40,0.503,0.764,0.483,0.957,0.688,0.309,0.554,0.521,���k��,7.5,��
2024/02/11,09:50,0.506,0.762,0.480,0.955,0.687,0.311,0.555,0.521,�k��,7.9,��
2024/02/11,10:00,0.506,0.763,0.479,0.958,0.688,0.310,0.555,0.519,�k��,8.1,��
2024/02/11,10:10,0.503,0.762,0.482,0.957,0.686,0.311,0.555,0.522,���k��,9.4,��
2024/02/11,10:20,0.506,0.766,0.481,0.956,0.688,0.311,0.553,0.521,�k��,8.3,��
2024/02/11,10:30,0.505,0.766,0.483,0.959,0.688,0.312,0.554,0.521,�k��,6.7,��
2024/02/11,10:40,0.506,0.765,0.482,0.959,0.688,0.311,0.556,0.521,���k��,5.9,��
2024/02/11,10:50,0.503,0.763,0.481,0.956,0.691,0.312,0.554,0.523,��,6.4,��
2024/02/11,11:00,0.507,0.763,0.481,0.958,0.690,0.312,0.554,0.522,��,5.9,��
2024/02/11,11:10,0.505,0.765,0.483,0.960,0.690,0.309,0.555,0.523,��,4.8,��
2024/02/11,11:20,0.505,0.765,0.481,0.958,0.688,0.311,0.554,0.522,�k��,5.3,��
2024/02/11,11:30,0.504,0.764,0.482,0.959,0.691,0.310,0.554,0.521,�k��,5.6,��
2024/02/11,11:40,0.504,0.762,0.484,0.957,0.688,0.312,0.553,0.521,���k��,6.8,��
2024/02/11,11:50,0.506,0.764,0.482,0.957,0.688,0.311,0.554,0.522,�k��,5.7,��
2024/02/11,12:00,0.505,0.765,0.482,0.958,0.689,0.311,0.554,0.522,�k��,6.7,��
2024/02/11,12:10,0.506,0.763,0.482,0.958,0.691,0.311,0.554,0.521,�k��,8.2,��
2024/02/11,12:20,0.507,0.764,0.482,0.962,0.691,0.311,0.554,0.522,�k��,7.9,��
2024/02/11,12:30,0.505,0.766,0.482,0.958,0.691,0.310,0.553,0.523,�k��,6.3,��
2024/02/11,12:40,0.507,0.765,0.482,0.958,0.690,0.312,0.553,0.521,�k��,6.7,��
2024/02/11,12:50,0.507,0.766,0.483,0.958,0.691,0.310,0.554,0.522,�k��,5.4,��
2024/02/11,13:00,0.507,0.765,0.482,0.958,0.691,0.311,0.553,0.522,�k��,6.4,��
2024/02/11,13:10,0.505,0.765,0.483,0.957,0.692,0.311,0.553,0.521,���k��,4.9,��
2024/02/11,13:20,0.506,0.765,0.483,0.958,0.692,0.311,0.554,0.522,���k��,4.5,��
2024/02/11,13:30,0.506,0.765,0.483,0.961,0.689,0.311,0.555,0.523,��,4.4,�L
2024/02/11,13:40,0.504,0.764,0.482,0.960,0.690,0.312,0.556,0.522,���k��,3.6,��
2024/02/11,13:50,0.505,0.763,0.484,0.960,0.689,0.312,0.552,0.522,�k��,5.4,��
2024/02/11,14:00,0.506,0.763,0.482,0.959,0.689,0.311,0.555,0.521,�k��,4.7,��
2024/02/11,14:10,0.505,0.764,0.483,0.959,0.688,0.309,0.553,0.520,���k��,3.5,��
2024/02/11,14:20,0.506,0.765,0.482,0.959,0.689,0.310,0.553,0.521,���k��,4.3,��
2024/02/11,14:30,0.506,0.765,0.482,0.959,0.691,0.312,0.553,0.521,���k��,4.8,��
2024/02/11,14:40,0.505,0.764,0.482,0.961,0.691,0.311,0.554,0.520,���k��,3.8,��
2024/02/11,14:50,0.505,0.764,0.483,0.959,0.691,0.311,0.555,0.522,�k��,3.0,��
2024/02/11,15:00,0.505,0.767,0.482,0.960,0.692,0.311,0.554,0.522,���k��,3.6,��
2024/02/11,15:10,0.508,0.767,0.483,0.959,0.691,0.310,0.554,0.522,�k��,3.8,��
2024/02/11,15:20,0.507,0.769,0.485,0.959,0.691,0.311,0.556,0.522,�k��,4.1,�L
2024/02/11,15:30,0.508,0.766,0.482,0.960,0.691,0.311,0.556,0.522,���k��,2.6,��
2024/02/11,15:40,0.506,0.767,0.483,0.961,0.692,0.310,0.555,0.521,�k��,2.6,��
2024/02/11,15:50,0.508,0.768,0.483,0.960,0.691,0.312,0.556,0.521,�k��,2.3,��
2024/02/11,16:00,0.508,0.766,0.483,0.957,0.691,0.311,0.556,0.522,�k��,3.5,��
2024/02/11,16:10,0.506,0.766,0.484,0.959,0.690,0.310,0.557,0.521,�k��,3.1,��
2024/02/11,16:20,0.506,0.768,0.482,0.960,0.692,0.312,0.556,0.520,�k�k��,3.8,��
2024/02/11,16:30,0.506,0.766,0.482,0.960,0.690,0.312,0.557,0.521,�k��,4.2,��
2024/02/11,16:40,0.508,0.768,0.481,0.960,0.691,0.310,0.557,0.520,�k�k��,4.0,��
2024/02/11,16:50,0.507,0.767,0.482,0.960,0.692,0.310,0.556,0.520,�k�k��,3.5,��
2024/02/11,17:00,0.506,0.768,0.483,0.960,0.691,0.312,0.556,0.520,�k�k��,4.2,��
2024/02/11,17:10,0.507,0.767,0.481,0.960,0.690,0.311,0.555,0.521,�k�k��,5.5,��
2024/02/11,17:20,0.505,0.767,0.483,0.960,0.691,0.310,0.555,0.521,�k�k��,4.8,��
2024/02/11,17:30,0.507,0.767,0.482,0.961,0.692,0.309,0.556,0.520,�k�k��,5.5,��
2024/02/11,17:40,0.507,0.768,0.482,0.960,0.691,0.312,0.556,0.520,�k�k��,6.7,��
2024/02/11,17:50,0.507,0.766,0.482,0.958,0.691,0.310,0.556,0.521,�k�k��,5.5,��
2024/02/11,18:00,0.505,0.769,0.483,0.960,0.691,0.310,0.555,0.521,�k��,4.9,��
2024/02/11,18:10,0.506,0.766,0.481,0.959,0.689,0.310,0.556,0.518,�k�k��,5.4,��
2024/02/11,18:20,0.506,0.768,0.481,0.959,0.691,0.311,0.556,0.520,�k��,6.1,��
2024/02/11,18:30,0.507,0.769,0.482,0.958,0.692,0.310,0.556,0.519,�k�k��,6.4,��
2024/02/11,18:40,0.506,0.766,0.482,0.960,0.689,0.311,0.556,0.519,�k��,5.5,��
2024/02/11,18:50,0.505,0.768,0.483,0.959,0.691,0.310,0.554,0.521,�k��,5.3,��
2024/02/11,19:00,0.507,0.766,0.481,0.961,0.688,0.310,0.555,0.519,�k��,5.6,��
2024/02/11,19:10,0.505,0.766,0.480,0.960,0.691,0.310,0.554,0.520,�k�k��,5.9,��
2024/02/11,19:20,0.506,0.766,0.482,0.959,0.691,0.310,0.554,0.519,�k��,5.0,��
2024/02/11,19:30,0.506,0.768,0.482,0.960,0.689,0.310,0.554,0.519,�k��,3.9,��
2024/02/11,19:40,0.506,0.766,0.482,0.958,0.688,0.310,0.552,0.519,�k��,4.0,��
2024/02/11,19:50,0.505,0.766,0.481,0.959,0.690,0.310,0.554,0.518,�k��,4.5,��
2024/02/11,20:00,0.504,0.766,0.482,0.958,0.690,0.311,0.554,0.520,�k��,5.1,��
2024/02/11,20:10,0.505,0.766,0.480,0.958,0.690,0.309,0.555,0.519,�k��,5.3,��
2024/02/11,20:20,0.505,0.766,0.480,0.959,0.692,0.309,0.554,0.520,�k�k��,5.1,��
2024/02/11,20:30,0.506,0.767,0.482,0.960,0.689,0.310,0.557,0.519,�k�k��,5.4,��
2024/02/11,20:40,0.506,0.768,0.482,0.959,0.688,0.310,0.554,0.519,�k�k��,4.2,��
2024/02/11,20:50,0.507,0.768,0.481,0.959,0.691,0.310,0.555,0.519,�k�k��,4.5,��
2024/02/11,21:00,0.505,0.767,0.480,0.960,0.689,0.309,0.554,0.520,�k��,4.8,��
2024/02/11,21:10,0.506,0.767,0.480,0.959,0.690,0.309,0.555,0.517,�k��,5.9,��
2024/02/11,21:20,0.506,0.767,0.481,0.957,0.690,0.309,0.552,0.520,�k�k��,5.0,��
2024/02/11,21:30,0.505,0.770,0.482,0.960,0.690,0.309,0.553,0.519,�k�k��,5.3,��
2024/02/11,21:40,0.506,0.766,0.481,0.959,0.690,0.311,0.554,0.519,�k�k��,4.2,��
2024/02/11,21:50,0.506,0.765,0.482,0.958,0.689,0.310,0.555,0.521,�k�k��,3.6,��
2024/02/11,22:00,0.506,0.769,0.482,0.960,0.689,0.310,0.554,0.519,�k��,4.6,��
2024/02/11,22:10,0.505,0.766,0.482,0.960,0.690,0.309,0.553,0.520,�k��,4.3,��
2024/02/11,22:20,0.506,0.766,0.482,0.959,0.688,0.310,0.553,0.520,�k��,4.7,��
2024/02/11,22:30,0.505,0.767,0.481,0.959,0.688,0.309,0.553,0.521,�k��,5.1,��
2024/02/11,22:40,0.506,0.767,0.481,0.960,0.690,0.310,0.555,0.518,�k��,5.0,��
2024/02/11,22:50,0.506,0.765,0.482,0.959,0.689,0.309,0.553,0.519,�k��,4.6,��
2024/02/11,23:00,0.505,0.766,0.482,0.959,0.690,0.309,0.554,0.521,�k��,4.4,��
2024/02/11,23:10,0.507,0.767,0.480,0.958,0.689,0.308,0.554,0.519,�k��,5.0,��
2024/02/11,23:20,0.506,0.767,0.479,0.959,0.690,0.310,0.553,0.520,�k��,5.0,��
2024/02/11,23:30,0.505,0.765,0.482,0.960,0.689,0.309,0.552,0.520,�k��,4.6,��
2024/02/11,23:40,0.505,0.768,0.480,0.959,0.689,0.309,0.553,0.520,�k��,4.8,��
2024/02/11,23:50,0.506,0.765,0.480,0.961,0.690,0.310,0.554,0.519,�k��,5.3,��
